Weather History for Georgetown, DE

Change the Weather History Date:

Sunday, January 25, 2015

  Actual Average Record
Temperature  
Mean Temperature 43 °F 35 °F  
Max Temperature 50 °F 44 °F 74 °F (1950)
Min Temperature 35 °F 26 °F 1 °F (1963)
Degree Days  
Heating Degree Days 22 30  
Month to date heating degree days 762 747  
Since 1 July heating degree days 2221 2329  
Cooling Degree Days 0 0  
Month to date cooling degree days 0 0  
Year to date cooling degree days 0 0  
Moisture  
Dew Point 30 °F    
Average Humidity 63    
Maximum Humidity 79    
Minimum Humidity 46    
Precipitation  
Precipitation 0.00 in 0.10 in 1.38 in (2010)
Month to date precipitation 4.13 2.37  
Year to date precipitation 4.13 2.37  
Sea Level Pressure  
Sea Level Pressure 29.83 in    
Wind  
Wind Speed 6 mph (WSW)    
Max Wind Speed 16 mph    
Max Gust Speed 21 mph    
Visibility 10 miles    
Events      
T = Trace of Precipitation, MM = Missing Value Source: NWS Daily Summary

Daily Weather History Graph

Daily Weather History Graph

Search for Another Location

Airport:

Trip Planner

Search our weather history database for the weather conditions in past years. The results will help you decide how hot, cold, wet, or windy it might be!

Date:

Astronomy

Jan. 25, 2015 Rise Set
Actual Time 7:12 AM EST 5:14 PM EST
Civil Twilight 6:44 AM EST 5:43 PM EST
Nautical Twilight 6:12 AM EST 6:15 PM EST
Astronomical Twilight 5:40 AM EST 6:47 PM EST
Moon 10:21 AM EST (1/25) 11:32 PM EST (1/25)
Length of Visible Light 10h 59m
Length of Day
10h 02m
Waxing Crescent, 34% of the Moon is Illuminated
Jan 25
Waxing Crescent
Jan 26
First Quarter
Feb 3
Full
Feb 11
Last Quarter
Feb 18
New

Hourly Weather History & Observations

Time (EST) Temp. Windchill Dew Point Humidity Pressure Visibility Wind Dir Wind Speed Gust Speed Precip Events Conditions
12:54 AM 35.1 °F 30.1 °F 27.0 °F 72% 29.67 in 10.0 mi West 5.8 mph - N/A   Mostly Cloudy
1:54 AM 36.0 °F 29.6 °F 27.0 °F 70% 29.69 in 10.0 mi West 8.1 mph - N/A   Overcast
2:54 AM 36.0 °F 30.3 °F 28.0 °F 73% 29.72 in 10.0 mi West 6.9 mph - N/A   Overcast
3:54 AM 36.0 °F 30.3 °F 28.0 °F 73% 29.73 in 10.0 mi West 6.9 mph - N/A   Partly Cloudy
4:54 AM 35.1 °F 30.1 °F 28.0 °F 76% 29.75 in 10.0 mi West 5.8 mph - N/A   Clear
5:54 AM 35.1 °F 28.6 °F 27.0 °F 72% 29.79 in 10.0 mi West 8.1 mph - N/A   Clear
6:54 AM 36.0 °F 31.1 °F 27.0 °F 70% 29.82 in 10.0 mi West 5.8 mph - N/A   Partly Cloudy
7:54 AM 37.9 °F 33.5 °F 28.0 °F 68% 29.85 in 10.0 mi WSW 5.8 mph - N/A   Overcast
8:54 AM 39.0 °F 35.7 °F 28.9 °F 67% 29.84 in 10.0 mi SW 4.6 mph - N/A   Mostly Cloudy
9:54 AM 43.0 °F 38.8 °F 30.0 °F 60% 29.86 in 10.0 mi WSW 6.9 mph - N/A   Clear
10:54 AM 46.0 °F 41.4 °F 28.9 °F 51% 29.87 in 10.0 mi West 9.2 mph 20.7 mph N/A   Clear
11:54 AM 48.0 °F - 30.9 °F 52% 29.86 in 10.0 mi SW 13.8 mph - N/A   Partly Cloudy
12:54 PM 48.0 °F - 30.0 °F 50% 29.86 in 10.0 mi West 10.4 mph - N/A   Overcast
1:54 PM 50.0 °F - 30.9 °F 48% 29.83 in 10.0 mi Variable 3.5 mph - N/A   Overcast
2:54 PM 48.9 °F - 30.0 °F 48% 29.83 in 10.0 mi West 3.5 mph - N/A   Mostly Cloudy
3:54 PM 48.0 °F - 30.9 °F 52% 29.85 in 10.0 mi WSW 4.6 mph - N/A   Overcast
4:54 PM 46.9 °F - 32.0 °F 56% 29.86 in 10.0 mi Calm Calm - N/A   Mostly Cloudy
5:54 PM 44.1 °F 40.8 °F 32.0 °F 63% 29.87 in 10.0 mi SSW 5.8 mph - N/A   Clear
6:54 PM 42.1 °F - 32.0 °F 67% 29.90 in 10.0 mi Calm Calm - N/A   Overcast
7:54 PM 39.9 °F 37.8 °F 33.1 °F 77% 29.90 in 10.0 mi SE 3.5 mph - N/A   Mostly Cloudy
8:54 PM 39.9 °F - 32.0 °F 73% 29.90 in 10.0 mi Calm Calm - N/A   Clear
9:54 PM 39.0 °F 35.7 °F 30.9 °F 73% 29.90 in 10.0 mi South 4.6 mph - N/A   Partly Cloudy
10:54 PM 41.0 °F 37.1 °F 30.9 °F 67% 29.92 in 10.0 mi SSW 5.8 mph - N/A   Overcast
11:54 PM 41.0 °F 37.1 °F 32.0 °F 70% 29.90 in 10.0 mi South 5.8 mph - N/A   Overcast